ASNARO

Last updated on Fri Apr 25 2025 00:02:25 GMT+0000 (Coordinated Universal Time)

1 40298U 14070A 25114.48632193 .00019714 00000+0 93692-3 0 9997 2 40298 97.3800 195.8043 0006860 178.7607 181.3646 15.19225375580448
UTC large
Height (km)
Speed (km/s)
/
Latitude / Longitude
Inclination (degrees)
Orbital Period (minutes)
Azimuth
Elevation
Range (km)
Doppler Factor

Next 0 passes for location: London (51.5072 / 0.1276)

Sorry there are no passes over London.